N9XRG Weather Reports


Display with metric or nautical units.
time (UTC)temp
F
wind
direction
speed
MPH
gust
MPH
rain 1hr
in
rain 24hr
in
rain mn
in
humidity
%
barometer
mb
20260504050254 46 94 2.0 3.0 0.00 0.00 0.00 84 1009.2
20260504045751 46 101 2.0 2.0 0.00 0.00 0.00 84 1009.2
20260504045250 47 109 2.0 3.0 0.00 0.00 0.00 83 1009.3
20260504044748 47 89 1.0 3.0 0.00 0.00 0.00 83 1009.2
20260504044246 46 65 2.0 4.0 0.00 0.00 0.00 84 1009.2
20260504043743 46 109 2.0 3.0 0.00 0.00 0.00 84 1009.2
20260504043239 46 132 2.0 3.0 0.00 0.00 0.00 84 1009.4
20260504042737 46 96 1.0 2.0 0.00 0.00 0.00 84 1009.3
20260504042233 46 82 2.0 2.0 0.00 0.00 0.00 84 1009.4
20260504041730 46 99 2.0 3.0 0.00 0.00 0.00 83 1009.4
20260504041226 47 109 2.0 3.0 0.00 0.00 0.00 83 1009.6
20260504040722 47 64 2.0 2.0 0.00 0.00 0.00 82 1009.7
20260504040219 48 66 2.0 3.0 0.00 0.00 0.00 81 1009.6
20260504035716 48 96 2.0 3.0 0.00 0.00 0.00 81 1009.4
20260504035213 48 96 2.0 2.0 0.00 0.00 0.00 80 1009.7
20260504034710 48 101 1.0 4.0 0.00 0.00 0.00 80 1009.6
20260504034208 48 102 3.0 3.0 0.00 0.00 0.00 80 1009.8
20260504033705 48 97 2.0 3.0 0.00 0.00 0.00 80 1009.9
20260504033202 48 137 4.0 4.0 0.00 0.00 0.00 81 1009.9
20260504032659 48 94 2.0 3.0 0.00 0.00 0.00 81 1010.0
20260504032156 48 93 2.0 3.0 0.00 0.00 0.00 81 1010.1
20260504031653 47 109 2.0 3.0 0.00 0.00 0.00 83 1010.0
20260504031149 47 94 2.0 3.0 0.00 0.00 0.00 83 1010.0
20260504030646 47 107 5.0 5.0 0.00 0.00 0.00 83 1010.1
20260504030143 47 95 2.0 3.0 0.00 0.00 0.00 83 1010.2
20260504025640 46 86 2.0 3.0 0.00 0.00 0.00 83 1010.1
20260504025136 46 86 2.0 3.0 0.00 0.00 0.00 84 1010.2
20260504024634 47 82 2.0 3.0 0.00 0.00 0.00 83 1010.3
20260504024130 47 115 1.0 2.0 0.00 0.00 0.00 83 1010.2
20260504023627 47 78 2.0 3.0 0.00 0.00 0.00 82 1010.3
20260504023123 47 72 2.0 2.0 0.00 0.00 0.00 82 1010.4
20260504022619 47 86 2.0 2.0 0.00 0.00 0.00 82 1010.3
20260504022115 47 86 2.0 2.0 0.00 0.00 0.00 82 1010.5
20260504021614 47 91 2.0 2.0 0.00 0.00 0.00 81 1010.3
20260504021110 48 77 2.0 3.0 0.00 0.00 0.00 81 1010.2
20260504020607 48 57 2.0 3.0 0.00 0.00 0.00 80 1010.2
20260504020103 48 142 3.0 3.0 0.00 0.00 0.00 81 1010.6
20260504015600 48 115 3.0 4.0 0.00 0.00 0.00 81 1010.2
20260504015055 48 84 2.0 3.0 0.00 0.00 0.00 80 1010.4
20260504014552 49 99 2.0 3.0 0.00 0.00 0.00 80 1010.4
20260504014049 49 88 2.0 3.0 0.00 0.00 0.00 79 1010.5
20260504013547 49 98 2.0 3.0 0.00 0.00 0.00 78 1010.4
20260504013044 50 109 2.0 3.0 0.00 0.00 0.00 78 1010.3
20260504012541 50 108 2.0 4.0 0.00 0.00 0.00 78 1010.4
20260504012039 50 126 2.0 3.0 0.00 0.00 0.00 77 1010.2
20260504011535 50 113 2.0 5.0 0.00 0.00 0.00 77 1010.4
20260504011031 50 113 2.0 4.0 0.00 0.00 0.00 77 1010.3
20260504010527 50 138 4.0 4.0 0.00 0.00 0.00 77 1010.4
20260504010023 50 92 2.0 4.0 0.00 0.00 0.00 76 1010.6
20260504005520 50 125 3.0 3.0 0.00 0.00 0.00 76 1010.4
20260504005018 50 123 2.0 4.0 0.00 0.00 0.00 74 1010.5
20260504004516 50 138 2.0 4.0 0.00 0.00 0.00 73 1010.5
20260504004012 50 121 2.0 3.0 0.00 0.00 0.00 74 1010.4
20260504003508 50 116 2.0 4.0 0.00 0.00 0.00 74 1010.6
20260504003006 51 120 2.0 6.0 0.00 0.00 0.00 73 1010.5
20260504002502 51 89 0.0 4.0 0.00 0.00 0.00 74 1010.6
20260504001959 51 125 2.0 5.0 0.00 0.00 0.00 73 1010.6
20260504001457 51 101 1.0 5.0 0.00 0.00 0.00 73 1010.5
20260504000953 51 114 3.0 4.0 0.00 0.00 0.00 74 1010.6
20260504000450 51 97 2.0 3.0 0.00 0.00 0.00 74 1010.7
20260503235948 51 122 2.0 4.0 0.00 0.00 0.00 74 1010.9
20260503235445 51 135 2.0 3.0 0.00 0.00 0.00 74 1010.8
20260503234942 51 110 2.0 3.0 0.00 0.00 0.00 73 1011.0
20260503234440 51 146 3.0 3.0 0.00 0.00 0.00 75 1011.2
20260503233938 51 139 5.0 6.0 0.00 0.00 0.00 74 1010.9
20260503233434 51 100 3.0 4.0 0.00 0.00 0.00 74 1011.0
20260503232931 51 114 3.0 3.0 0.00 0.00 0.00 75 1011.0
20260503232428 51 83 2.0 4.0 0.00 0.00 0.00 75 1011.0
20260503231926 51 60 2.0 5.0 0.00 0.00 0.00 74 1011.2
20260503231423 51 148 2.0 4.0 0.00 0.00 0.00 74 1011.3
20260503230919 51 160 3.0 4.0 0.00 0.00 0.00 74 1011.2
20260503230416 51 129 2.0 3.0 0.00 0.00 0.00 74 1011.4
20260503225914 51 94 3.0 5.0 0.00 0.00 0.00 75 1011.6
20260503225409 51 99 2.0 4.0 0.00 0.00 0.00 76 1011.2
20260503224906 50 109 4.0 5.0 0.00 0.00 0.00 76 1011.7
20260503224403 50 160 3.0 6.0 0.00 0.00 0.00 77 1011.7
20260503223900 50 138 3.0 4.0 0.00 0.00 0.00 77 1011.4
20260503223358 50 102 2.0 4.0 0.00 0.00 0.00 78 1011.5
20260503222853 50 94 3.0 4.0 0.00 0.00 0.00 77 1011.5
20260503222352 50 92 3.0 5.0 0.00 0.00 0.00 78 1011.7
20260503221850 50 111 3.0 6.0 0.00 0.00 0.00 77 1011.7
20260503221348 50 74 4.0 4.0 0.00 0.00 0.00 78 1011.8
20260503220844 50 144 4.0 5.0 0.00 0.00 0.00 77 1011.8
20260503220341 50 118 6.0 6.0 0.00 0.00 0.00 78 1012.0
20260503215838 50 95 3.0 5.0 0.00 0.00 0.00 77 1011.8
20260503215335 50 128 3.0 5.0 0.00 0.00 0.00 78 1011.7
20260503214833 50 108 1.0 5.0 0.00 0.00 0.00 79 1011.8
20260503214330 50 114 1.0 4.0 0.00 0.00 0.00 78 1011.9
20260503213827 50 103 2.0 8.0 0.00 0.00 0.00 79 1012.0
20260503213325 50 125 3.0 6.0 0.00 0.00 0.00 79 1012.1
20260503212821 50 127 4.0 4.0 0.00 0.00 0.00 79 1012.3
20260503212319 50 127 3.0 4.0 0.00 0.00 0.00 79 1012.1
20260503211816 50 108 2.0 6.0 0.00 0.00 0.00 77 1012.4
20260503211313 50 157 4.0 5.0 0.00 0.00 0.00 77 1012.5
20260503210813 50 156 2.0 6.0 0.00 0.00 0.00 78 1012.8
20260503210311 50 161 4.0 4.0 0.00 0.00 0.00 78 1012.7
20260503205806 50 122 4.0 8.0 0.00 0.00 0.00 76 1013.2
20260503205304 51 154 3.0 4.0 0.00 0.00 0.00 74 1013.2
20260503204759 52 106 3.0 4.0 0.00 0.00 0.00 71 1013.4
20260503204257 52 47 2.0 5.0 0.00 0.00 0.00 69 1013.6
20260503203754 53 67 3.0 9.0 0.00 0.00 0.00 68 1013.6
20260503203251 53 126 5.0 12.0 0.00 0.00 0.00 67 1013.7
20260503202748 53 156 5.0 13.0 0.00 0.00 0.00 65 1013.6
20260503202246 54 66 4.0 6.0 0.00 0.00 0.00 64 1013.8
20260503201744 54 140 7.0 7.0 0.00 0.00 0.00 62 1014.1
20260503201241 55 87 2.0 11.0 0.00 0.00 0.00 61 1014.0
20260503200737 56 169 6.0 7.0 0.00 0.00 0.00 58 1013.9
20260503200233 56 148 8.0 14.0 0.00 0.00 0.00 59 1013.8
20260503195731 56 91 4.0 13.0 0.00 0.00 0.00 58 1013.7
20260503195227 56 111 5.0 10.0 0.00 0.00 0.00 56 1014.0
20260503194726 56 143 12.0 12.0 0.00 0.00 0.00 54 1013.7
20260503194221 58 140 4.0 14.0 0.00 0.00 0.00 52 1013.5
20260503193717 60 30 7.0 9.0 0.00 0.00 0.00 47 1013.6
20260503193213 61 114 4.0 6.0 0.00 0.00 0.00 47 1013.2
20260503192709 61 174 4.0 7.0 0.00 0.00 0.00 46 1013.1
20260503192204 61 65 2.0 6.0 0.00 0.00 0.00 45 1013.3
20260503191701 61 95 4.0 9.0 0.00 0.00 0.00 44 1013.4
20260503191158 61 82 4.0 9.0 0.00 0.00 0.00 43 1013.3
20260503190655 61 144 4.0 9.0 0.00 0.00 0.00 45 1013.3
20260503190152 60 111 7.0 9.0 0.00 0.00 0.00 44 1013.2
20260503185649 61 117 5.0 11.0 0.00 0.00 0.00 42 1013.6
20260503185144 61 139 7.0 10.0 0.00 0.00 0.00 42 1013.7
20260503184639 62 121 4.0 12.0 0.00 0.00 0.00 42 1013.6
20260503184136 62 111 4.0 9.0 0.00 0.00 0.00 42 1013.7
20260503183632 62 160 2.0 9.0 0.00 0.00 0.00 41 1013.7
20260503183130 62 26 2.0 7.0 0.00 0.00 0.00 41 1013.8
20260503182628 62 172 4.0 10.0 0.00 0.00 0.00 41 1013.6
20260503182126 62 129 3.0 6.0 0.00 0.00 0.00 44 1013.6
20260503181622 62 54 5.0 8.0 0.00 0.00 0.00 42 1013.9
20260503181119 62 114 4.0 9.0 0.00 0.00 0.00 42 1014.0
20260503180616 62 126 7.0 10.0 0.00 0.00 0.00 41 1013.9
20260503180114 63 160 1.0 11.0 0.00 0.00 0.00 39 1014.3
20260503175611 63 158 6.0 9.0 0.00 0.00 0.00 40 1013.9
20260503175108 63 83 3.0 7.0 0.00 0.00 0.00 40 1014.3
20260503174605 63 158 2.0 5.0 0.00 0.00 0.00 39 1014.5
20260503174101 63 75 4.0 6.0 0.00 0.00 0.00 40 1014.2
20260503173556 62 122 2.0 10.0 0.00 0.00 0.00 43 1014.6
20260503173053 63 187 2.0 6.0 0.00 0.00 0.00 41 1014.7
20260503172550 63 62 4.0 7.0 0.00 0.00 0.00 38 1014.8
20260503172048 63 101 4.0 8.0 0.00 0.00 0.00 38 1014.8
20260503171544 62 83 6.0 10.0 0.00 0.00 0.00 40 1014.9
20260503171041 62 92 6.0 9.0 0.00 0.00 0.00 38 1014.9
20260503170537 62 91 6.0 7.0 0.00 0.00 0.00 41 1014.9
20260503150930 58 105 3.0 8.0 0.00 0.00 0.00 43 1016.3
20260503150427 59 132 5.0 11.0 0.00 0.00 0.00 43 1016.1
20260503131320 54 164 3.0 7.0 0.00 0.00 0.00 50 1016.7
20260503130817 53 133 4.0 11.0 0.00 0.00 0.00 50 1016.6
20260503130315 53 131 5.0 6.0 0.00 0.00 0.00 51 1016.8
20260503110708 36 115 3.0 5.0 0.00 0.00 0.00 79 1016.3
20260503110205 36 111 2.0 3.0 0.00 0.00 0.00 80 1016.4
20260503100132 34 110 2.0 2.0 0.00 0.00 0.00 84 1016.2
20260503081521 33 111 2.0 2.0 0.00 0.00 0.00 88 1016.3
20260503081019 33 89 2.0 4.0 0.00 0.00 0.00 89 1016.4
20260503080515 32 115 2.0 3.0 0.00 0.00 0.00 89 1016.5
20260503072448 33 105 2.0 3.0 0.00 0.00 0.00 89 1016.4
20260503071945 33 108 2.0 3.0 0.00 0.00 0.00 89 1016.5
20260503071442 33 113 3.0 3.0 0.00 0.00 0.00 88 1016.6
20260503070938 33 111 2.0 3.0 0.00 0.00 0.00 88 1016.6
20260503070435 33 116 2.0 3.0 0.00 0.00 0.00 88 1016.6